Year,Month,Day,Hour,Minute,Value (Times are PST for temperature in C)
2007,10,13,00,00,7.20
2007,10,13,00,01,7.20
2007,10,13,00,02,7.30
2007,10,13,00,03,7.30
2007,10,13,00,04,7.30
2007,10,13,00,05,7.30
2007,10,13,00,06,7.30
2007,10,13,00,07,7.30
2007,10,13,00,08,7.30
2007,10,13,00,09,7.30
2007,10,13,00,10,7.30
2007,10,13,00,11,7.30
2007,10,13,00,12,7.20
2007,10,13,00,13,7.20
2007,10,13,00,14,7.20
2007,10,13,00,15,7.20
2007,10,13,00,16,7.20
2007,10,13,00,17,7.10
2007,10,13,00,18,7.10
2007,10,13,00,19,7.10
2007,10,13,00,20,7.00
2007,10,13,00,21,7.00
2007,10,13,00,22,7.00
2007,10,13,00,23,6.90
2007,10,13,00,24,6.90
2007,10,13,00,25,6.90
2007,10,13,00,26,6.90
2007,10,13,00,27,6.90
2007,10,13,00,28,7.00
2007,10,13,00,29,7.10
2007,10,13,00,30,7.10
2007,10,13,00,31,7.20
2007,10,13,00,32,7.20
2007,10,13,00,33,7.20
2007,10,13,00,34,7.20
2007,10,13,00,35,7.20
2007,10,13,00,36,7.20
2007,10,13,00,37,7.20
2007,10,13,00,38,7.20
2007,10,13,00,39,7.20
2007,10,13,00,40,7.20
2007,10,13,00,41,7.20
2007,10,13,00,42,7.20
2007,10,13,00,43,7.20
2007,10,13,00,44,7.10
2007,10,13,00,45,7.10
2007,10,13,00,46,7.10
2007,10,13,00,47,7.10
2007,10,13,00,48,7.10
2007,10,13,00,49,7.10
2007,10,13,00,50,7.10
2007,10,13,00,51,7.10
2007,10,13,00,52,7.10
2007,10,13,00,53,7.10
2007,10,13,00,54,7.10
2007,10,13,00,55,7.10
2007,10,13,00,56,7.00
2007,10,13,00,57,7.00
2007,10,13,00,58,7.00
2007,10,13,00,59,6.90
2007,10,13,01,00,6.90
2007,10,13,01,01,6.90
2007,10,13,01,02,6.90
2007,10,13,01,03,6.90
2007,10,13,01,04,6.80
2007,10,13,01,05,6.80
2007,10,13,01,06,6.90
2007,10,13,01,07,6.80
2007,10,13,01,08,6.80
2007,10,13,01,09,6.80
2007,10,13,01,10,6.80
2007,10,13,01,11,6.80
2007,10,13,01,12,6.80
2007,10,13,01,13,6.80
2007,10,13,01,14,6.80
2007,10,13,01,15,6.80
2007,10,13,01,16,6.80
2007,10,13,01,17,6.80
2007,10,13,01,18,6.80
2007,10,13,01,19,6.80
2007,10,13,01,20,6.80
2007,10,13,01,21,6.80
2007,10,13,01,22,6.80
2007,10,13,01,23,6.80
2007,10,13,01,24,6.80
2007,10,13,01,25,6.80
2007,10,13,01,26,6.70
2007,10,13,01,27,6.70
2007,10,13,01,28,6.80
2007,10,13,01,29,6.80
2007,10,13,01,30,6.80
2007,10,13,01,31,6.80
2007,10,13,01,32,6.80
2007,10,13,01,33,6.80
2007,10,13,01,34,6.80
2007,10,13,01,35,6.70
2007,10,13,01,36,6.70
2007,10,13,01,37,6.70
2007,10,13,01,38,6.70
2007,10,13,01,39,6.70
2007,10,13,01,40,6.70
2007,10,13,01,41,6.70
2007,10,13,01,42,6.70
2007,10,13,01,43,6.70
2007,10,13,01,44,6.70
2007,10,13,01,45,6.70
2007,10,13,01,46,6.70
2007,10,13,01,47,6.70
2007,10,13,01,48,6.80
2007,10,13,01,49,6.80
2007,10,13,01,50,6.80
2007,10,13,01,51,6.80
2007,10,13,01,52,6.80
2007,10,13,01,53,6.80
2007,10,13,01,54,6.80
2007,10,13,01,55,6.80
2007,10,13,01,56,6.80
2007,10,13,01,57,6.80
2007,10,13,01,58,6.80
2007,10,13,01,59,6.80
2007,10,13,02,00,6.80
2007,10,13,02,01,6.70
2007,10,13,02,02,6.60
2007,10,13,02,03,6.50
2007,10,13,02,04,6.40
2007,10,13,02,05,6.30
2007,10,13,02,06,6.10
2007,10,13,02,07,6.00
2007,10,13,02,08,5.80
2007,10,13,02,09,5.70
2007,10,13,02,10,5.70
2007,10,13,02,11,5.60
2007,10,13,02,12,5.50
2007,10,13,02,13,5.40
2007,10,13,02,14,5.40
2007,10,13,02,15,5.40
2007,10,13,02,16,5.30
2007,10,13,02,17,5.30
2007,10,13,02,18,5.30
2007,10,13,02,19,5.30
2007,10,13,02,20,5.30
2007,10,13,02,21,5.40
2007,10,13,02,22,5.40
2007,10,13,02,23,5.50
2007,10,13,02,24,5.50
2007,10,13,02,25,5.50
2007,10,13,02,26,5.50
2007,10,13,02,27,5.60
2007,10,13,02,28,5.60
2007,10,13,02,29,5.70
2007,10,13,02,30,5.70
2007,10,13,02,31,5.80
2007,10,13,02,32,5.90
2007,10,13,02,33,5.90
2007,10,13,02,34,6.00
2007,10,13,02,35,6.00
2007,10,13,02,36,6.00
2007,10,13,02,37,6.00
2007,10,13,02,38,6.00
2007,10,13,02,39,6.00
2007,10,13,02,40,6.00
2007,10,13,02,41,6.00
2007,10,13,02,42,6.00
2007,10,13,02,43,6.00
2007,10,13,02,44,6.00
2007,10,13,02,45,6.00
2007,10,13,02,46,6.00
2007,10,13,02,47,6.00
2007,10,13,02,48,6.00
2007,10,13,02,49,6.00
2007,10,13,02,50,5.90
2007,10,13,02,51,5.90
2007,10,13,02,52,5.90
2007,10,13,02,53,5.90
2007,10,13,02,54,5.90
2007,10,13,02,55,5.90
2007,10,13,02,56,5.90
2007,10,13,02,57,5.90
2007,10,13,02,58,5.90
2007,10,13,02,59,5.90
2007,10,13,03,00,5.90
2007,10,13,03,01,6.00
2007,10,13,03,02,6.00
2007,10,13,03,03,6.10
2007,10,13,03,04,6.10
2007,10,13,03,05,6.10
2007,10,13,03,06,6.10
2007,10,13,03,07,6.10
2007,10,13,03,08,6.20
2007,10,13,03,09,6.20
2007,10,13,03,10,6.30
2007,10,13,03,11,6.30
2007,10,13,03,12,6.30
2007,10,13,03,13,6.40
2007,10,13,03,14,6.40
2007,10,13,03,15,6.50
2007,10,13,03,16,6.60
2007,10,13,03,17,6.60
2007,10,13,03,18,6.70
2007,10,13,03,19,6.70
2007,10,13,03,20,6.70
2007,10,13,03,21,6.70
2007,10,13,03,22,6.70
2007,10,13,03,23,6.70
2007,10,13,03,24,6.60
2007,10,13,03,25,6.60
2007,10,13,03,26,6.60
2007,10,13,03,27,6.60
2007,10,13,03,28,6.50
2007,10,13,03,29,6.40
2007,10,13,03,30,6.40
2007,10,13,03,31,6.40
2007,10,13,03,32,6.40
2007,10,13,03,33,6.40
2007,10,13,03,34,6.40
2007,10,13,03,35,6.40
2007,10,13,03,36,6.40
2007,10,13,03,37,6.40
2007,10,13,03,38,6.30
2007,10,13,03,39,6.30
2007,10,13,03,40,6.30
2007,10,13,03,41,6.30
2007,10,13,03,42,6.30
2007,10,13,03,43,6.40
2007,10,13,03,44,6.40
2007,10,13,03,45,6.40
2007,10,13,03,46,6.40
2007,10,13,03,47,6.40
2007,10,13,03,48,6.40
2007,10,13,03,49,6.40
2007,10,13,03,50,6.30
2007,10,13,03,51,6.30
2007,10,13,03,52,6.30
2007,10,13,03,53,6.30
2007,10,13,03,54,6.30
2007,10,13,03,55,6.30
2007,10,13,03,56,6.30
2007,10,13,03,57,6.30
2007,10,13,03,58,6.30
2007,10,13,03,59,6.20
2007,10,13,04,00,6.20
2007,10,13,04,01,6.20
2007,10,13,04,02,6.20
2007,10,13,04,03,6.20
2007,10,13,04,04,6.20
2007,10,13,04,05,6.20
2007,10,13,04,06,6.10
2007,10,13,04,11,6.20
2007,10,13,04,12,6.20
2007,10,13,04,13,6.20
2007,10,13,04,14,6.20
2007,10,13,04,15,6.20
2007,10,13,04,16,6.20
2007,10,13,04,17,6.20
2007,10,13,04,18,6.20
2007,10,13,04,19,6.20
2007,10,13,04,20,6.30
2007,10,13,04,21,6.30
2007,10,13,04,22,6.30
2007,10,13,04,23,6.30
2007,10,13,04,24,6.40
2007,10,13,04,25,6.40
2007,10,13,04,26,6.40
2007,10,13,04,27,6.50
2007,10,13,04,28,6.50
2007,10,13,04,29,6.60
2007,10,13,04,30,6.50
2007,10,13,04,31,6.50
2007,10,13,04,32,6.50
2007,10,13,04,33,6.50
2007,10,13,04,34,6.40
2007,10,13,04,35,6.30
2007,10,13,04,36,6.30
2007,10,13,04,37,6.30
2007,10,13,04,38,6.30
2007,10,13,04,39,6.30
2007,10,13,04,40,6.30
2007,10,13,04,41,6.30
2007,10,13,04,42,6.30
2007,10,13,04,43,6.20
2007,10,13,04,44,6.20
2007,10,13,04,45,6.20
2007,10,13,04,46,6.10
2007,10,13,04,47,6.10
2007,10,13,04,48,6.10
2007,10,13,04,49,6.00
2007,10,13,04,50,6.00
2007,10,13,04,51,5.90
2007,10,13,04,52,5.90
2007,10,13,04,53,5.90
2007,10,13,04,54,5.80
2007,10,13,04,55,5.80
2007,10,13,04,56,5.80
2007,10,13,04,57,5.70
2007,10,13,04,58,5.70
2007,10,13,04,59,5.80
2007,10,13,05,00,5.80
2007,10,13,05,01,5.80
2007,10,13,05,02,5.80
2007,10,13,05,03,5.80
2007,10,13,05,04,5.80
2007,10,13,05,05,5.80
2007,10,13,05,06,5.80
2007,10,13,05,07,5.90
2007,10,13,05,08,5.90
2007,10,13,05,09,5.90
2007,10,13,05,10,6.00
2007,10,13,05,11,6.00
2007,10,13,05,12,6.00
2007,10,13,05,13,6.00
2007,10,13,05,14,6.00
2007,10,13,05,15,6.00
2007,10,13,05,16,6.10
2007,10,13,05,17,6.10
2007,10,13,05,18,6.10
2007,10,13,05,19,6.10
2007,10,13,05,20,6.10
2007,10,13,05,21,6.10
2007,10,13,05,22,6.10
2007,10,13,05,23,6.10
2007,10,13,05,24,6.10
2007,10,13,05,25,6.10
2007,10,13,05,26,6.10
2007,10,13,05,27,6.10
2007,10,13,05,28,6.10
2007,10,13,05,29,6.10
2007,10,13,05,30,6.10
2007,10,13,05,31,6.10
2007,10,13,05,32,6.10
2007,10,13,05,33,6.10
2007,10,13,05,34,6.10
2007,10,13,05,35,6.10
2007,10,13,05,36,6.00
2007,10,13,05,37,5.90
2007,10,13,05,38,5.90
2007,10,13,05,39,5.80
2007,10,13,05,40,5.80
2007,10,13,05,41,5.80
2007,10,13,05,42,5.80
2007,10,13,05,43,5.80
2007,10,13,05,44,5.80
2007,10,13,05,45,5.80
2007,10,13,05,46,5.80
2007,10,13,05,47,5.80
2007,10,13,05,48,5.80
2007,10,13,05,49,5.90
2007,10,13,05,50,5.90
2007,10,13,05,51,5.90
2007,10,13,05,52,5.90
2007,10,13,05,53,5.90
2007,10,13,05,54,5.90
2007,10,13,05,55,6.00
2007,10,13,05,56,6.00
2007,10,13,05,57,5.90
2007,10,13,05,58,5.90
2007,10,13,05,59,5.90
2007,10,13,06,00,5.90
2007,10,13,06,01,5.90
2007,10,13,06,02,5.90
2007,10,13,06,03,5.80
2007,10,13,06,04,5.80
2007,10,13,06,05,5.70
2007,10,13,06,06,5.70
2007,10,13,06,07,5.70
2007,10,13,06,08,5.70
2007,10,13,06,09,5.70
2007,10,13,06,10,5.70
2007,10,13,06,11,5.70
2007,10,13,06,12,5.70
2007,10,13,06,13,5.70
2007,10,13,06,14,5.70
2007,10,13,06,15,5.70
2007,10,13,06,16,5.70
2007,10,13,06,17,5.70
2007,10,13,06,18,5.60
2007,10,13,06,19,5.60
2007,10,13,06,20,5.60
2007,10,13,06,21,5.50
2007,10,13,06,22,5.50
2007,10,13,06,23,5.40
2007,10,13,06,24,5.40
2007,10,13,06,25,5.40
2007,10,13,06,26,5.40
2007,10,13,06,27,5.40
2007,10,13,06,28,5.30
2007,10,13,06,29,5.30
2007,10,13,06,30,5.30
2007,10,13,06,31,5.30
2007,10,13,06,32,5.30
2007,10,13,06,33,5.30
2007,10,13,06,34,5.40
2007,10,13,06,35,5.40
2007,10,13,06,36,5.40
2007,10,13,06,37,5.50
2007,10,13,06,38,5.50
2007,10,13,06,39,5.60
2007,10,13,06,40,5.70
2007,10,13,06,41,5.70
2007,10,13,06,42,5.80
2007,10,13,06,43,5.80
2007,10,13,06,44,5.80
2007,10,13,06,45,5.90
2007,10,13,06,46,5.90
2007,10,13,06,47,6.00
2007,10,13,06,48,6.00
2007,10,13,06,49,6.00
2007,10,13,06,50,5.90
2007,10,13,06,51,5.80
2007,10,13,06,52,5.80
2007,10,13,06,53,5.80
2007,10,13,06,54,5.70
2007,10,13,06,55,5.70
2007,10,13,06,56,5.70
2007,10,13,06,57,5.60
2007,10,13,06,58,5.60
2007,10,13,06,59,5.50
2007,10,13,07,00,5.40
2007,10,13,07,01,5.40
2007,10,13,07,02,5.30
2007,10,13,07,03,5.20
2007,10,13,07,04,5.10
2007,10,13,07,05,5.10
2007,10,13,07,06,5.00
2007,10,13,07,07,5.00
2007,10,13,07,08,4.90
2007,10,13,07,09,4.90
2007,10,13,07,10,4.90
2007,10,13,07,11,4.90
2007,10,13,07,12,4.90
2007,10,13,07,13,4.80
2007,10,13,07,14,4.90
2007,10,13,07,15,4.90
2007,10,13,07,16,4.90
2007,10,13,07,17,4.90
2007,10,13,07,18,4.90
2007,10,13,07,19,4.90
2007,10,13,07,20,5.00
2007,10,13,07,21,5.00
2007,10,13,07,22,5.10
2007,10,13,07,23,5.10
2007,10,13,07,24,5.20
2007,10,13,07,25,5.30
2007,10,13,07,26,5.40
2007,10,13,07,27,5.40
2007,10,13,07,28,5.40
2007,10,13,07,29,5.40
2007,10,13,07,30,5.50
2007,10,13,07,31,5.50
2007,10,13,07,32,5.60
2007,10,13,07,33,5.60
2007,10,13,07,34,5.70
2007,10,13,07,35,5.70
2007,10,13,07,36,5.70
2007,10,13,07,37,5.60
2007,10,13,07,38,5.60
2007,10,13,07,39,5.60
2007,10,13,07,40,5.50
2007,10,13,07,41,5.50
2007,10,13,07,42,5.40
2007,10,13,07,43,5.40
2007,10,13,07,44,5.30
2007,10,13,07,45,5.30
2007,10,13,07,46,5.20
2007,10,13,07,47,5.20
2007,10,13,07,48,5.10
2007,10,13,07,49,5.10
2007,10,13,07,50,5.10
2007,10,13,07,51,5.10
2007,10,13,07,52,5.20
2007,10,13,07,53,5.20
2007,10,13,07,54,5.20
2007,10,13,07,55,5.30
2007,10,13,07,56,5.30
2007,10,13,07,57,5.30
2007,10,13,07,58,5.30
2007,10,13,07,59,5.30
2007,10,13,08,00,5.40
2007,10,13,08,01,5.40
2007,10,13,08,02,5.40
2007,10,13,08,03,5.40
2007,10,13,08,04,5.40
2007,10,13,08,05,5.40
2007,10,13,08,06,5.40
2007,10,13,08,07,5.40
2007,10,13,08,08,5.50
2007,10,13,08,09,5.50
2007,10,13,08,10,5.50
2007,10,13,08,11,5.60
2007,10,13,08,12,5.60
2007,10,13,08,13,5.60
2007,10,13,08,14,5.60
2007,10,13,08,15,5.60
2007,10,13,08,16,5.60
2007,10,13,08,17,5.60
2007,10,13,08,18,5.60
2007,10,13,08,19,5.70
2007,10,13,08,20,5.70
2007,10,13,08,21,5.80
2007,10,13,08,22,5.80
2007,10,13,08,23,5.90
2007,10,13,08,24,6.00
2007,10,13,08,25,6.00
2007,10,13,08,26,6.00
2007,10,13,08,27,6.10
2007,10,13,08,28,6.10
2007,10,13,08,29,6.10
2007,10,13,08,30,6.20
2007,10,13,08,31,6.20
2007,10,13,08,32,6.20
2007,10,13,08,33,6.30
2007,10,13,08,34,6.30
2007,10,13,08,35,6.20
2007,10,13,08,36,6.20
2007,10,13,08,37,6.20
2007,10,13,08,38,6.20
2007,10,13,08,39,6.20
2007,10,13,08,40,6.10
2007,10,13,08,41,6.10
2007,10,13,08,42,6.10
2007,10,13,08,43,6.10
2007,10,13,08,44,6.10
2007,10,13,08,45,6.10
2007,10,13,08,46,6.20
2007,10,13,08,47,6.20
2007,10,13,08,48,6.20
2007,10,13,08,49,6.20
2007,10,13,08,50,6.30
2007,10,13,08,51,6.30
2007,10,13,08,52,6.40
2007,10,13,08,53,6.40
2007,10,13,08,54,6.50
2007,10,13,08,55,6.60
2007,10,13,08,56,6.70
2007,10,13,08,57,6.70
2007,10,13,08,58,6.80
2007,10,13,08,59,6.80
2007,10,13,09,00,6.90
2007,10,13,09,01,6.90
2007,10,13,09,02,7.00
2007,10,13,09,03,7.10
2007,10,13,09,04,7.10
2007,10,13,09,05,7.20
2007,10,13,09,06,7.20
2007,10,13,09,07,7.30
2007,10,13,09,08,7.40
2007,10,13,09,09,7.50
2007,10,13,09,10,7.60
2007,10,13,09,11,7.70
2007,10,13,09,12,7.90
2007,10,13,09,13,7.90
2007,10,13,09,14,8.00
2007,10,13,09,15,8.10
2007,10,13,09,16,8.20
2007,10,13,09,17,8.30
2007,10,13,09,18,8.30
2007,10,13,09,19,8.40
2007,10,13,09,20,8.50
2007,10,13,09,21,8.60
2007,10,13,09,22,8.60
2007,10,13,09,23,8.70
2007,10,13,09,24,8.80
2007,10,13,09,25,8.80
2007,10,13,09,26,8.90
2007,10,13,09,27,9.00
2007,10,13,09,28,9.10
2007,10,13,09,29,9.10
2007,10,13,09,30,9.20
2007,10,13,09,31,9.30
2007,10,13,09,32,9.40
2007,10,13,09,33,9.50
2007,10,13,09,34,9.50
2007,10,13,09,35,9.60
2007,10,13,09,36,9.60
2007,10,13,09,37,9.70
2007,10,13,09,38,9.70
2007,10,13,09,39,9.80
2007,10,13,09,40,9.80
2007,10,13,09,41,9.90
2007,10,13,09,42,9.90
2007,10,13,09,43,9.90
2007,10,13,09,44,10.00
2007,10,13,09,45,10.00
2007,10,13,09,46,10.10
2007,10,13,09,47,10.10
2007,10,13,09,48,10.10
2007,10,13,09,49,10.10
2007,10,13,09,50,10.20
2007,10,13,09,51,10.20
2007,10,13,09,52,10.20
2007,10,13,09,53,10.20
2007,10,13,09,54,10.20
2007,10,13,09,55,10.20
2007,10,13,09,56,10.20
2007,10,13,09,57,10.30
2007,10,13,09,58,10.30
2007,10,13,09,59,10.30
2007,10,13,10,00,10.30
2007,10,13,10,01,10.30
2007,10,13,10,02,10.30
2007,10,13,10,03,10.40
2007,10,13,10,04,10.40
2007,10,13,10,05,10.40
2007,10,13,10,06,10.50
2007,10,13,10,07,10.50
2007,10,13,10,08,10.60
2007,10,13,10,09,10.60
2007,10,13,10,10,10.60
2007,10,13,10,11,10.70
2007,10,13,10,12,10.70
2007,10,13,10,13,10.70
2007,10,13,10,14,10.70
2007,10,13,10,15,10.70
2007,10,13,10,16,10.80
2007,10,13,10,17,10.80
2007,10,13,10,18,10.70
2007,10,13,10,19,10.70
2007,10,13,10,20,10.70
2007,10,13,10,21,10.80
2007,10,13,10,22,10.80
2007,10,13,10,23,10.80
2007,10,13,10,24,10.80
2007,10,13,10,25,10.80
2007,10,13,10,26,10.80
2007,10,13,10,27,10.80
2007,10,13,10,28,10.80
2007,10,13,10,29,10.70
2007,10,13,10,30,10.70
2007,10,13,10,31,10.80
2007,10,13,10,32,10.80
2007,10,13,10,33,10.80
2007,10,13,10,34,10.90
2007,10,13,10,35,10.90
2007,10,13,10,36,10.90
2007,10,13,10,37,11.00
2007,10,13,10,38,11.10
2007,10,13,10,39,11.10
2007,10,13,10,40,11.20
2007,10,13,10,41,11.20
2007,10,13,10,42,11.30
2007,10,13,10,43,11.30
2007,10,13,10,44,11.30
2007,10,13,10,45,11.30
2007,10,13,10,46,11.30
2007,10,13,10,47,11.40
2007,10,13,10,48,11.50
2007,10,13,10,49,11.50
2007,10,13,10,50,11.60
2007,10,13,10,51,11.70
2007,10,13,10,52,11.70
2007,10,13,10,53,11.70
2007,10,13,10,54,11.70
2007,10,13,10,55,11.80
2007,10,13,10,56,11.80
2007,10,13,10,57,11.90
2007,10,13,10,58,11.90
2007,10,13,10,59,12.00
2007,10,13,11,00,12.10
2007,10,13,11,01,12.10
2007,10,13,11,02,12.00
2007,10,13,11,03,12.10
2007,10,13,11,04,12.10
2007,10,13,11,05,12.20
2007,10,13,11,06,12.20
2007,10,13,11,07,12.30
2007,10,13,11,08,12.40
2007,10,13,11,09,12.40
2007,10,13,11,10,12.40
2007,10,13,11,11,12.40
2007,10,13,11,12,12.40
2007,10,13,11,13,12.40
2007,10,13,11,14,12.40
2007,10,13,11,15,12.40
2007,10,13,11,16,12.40
2007,10,13,11,17,12.40
2007,10,13,11,18,12.40
2007,10,13,11,19,12.40
2007,10,13,11,20,12.40
2007,10,13,11,21,12.40
2007,10,13,11,22,12.30
2007,10,13,11,23,12.30
2007,10,13,11,24,12.10
2007,10,13,11,25,12.10
2007,10,13,11,26,11.90
2007,10,13,11,27,11.90
2007,10,13,11,28,11.80
2007,10,13,11,29,11.80
2007,10,13,11,30,11.80
2007,10,13,11,31,11.80
2007,10,13,11,32,11.70
2007,10,13,11,33,11.80
2007,10,13,11,34,11.80
2007,10,13,11,35,11.80
2007,10,13,11,36,11.80
2007,10,13,11,37,11.80
2007,10,13,11,38,11.80
2007,10,13,11,39,11.80
2007,10,13,11,40,11.90
2007,10,13,11,41,11.90
2007,10,13,11,42,11.90
2007,10,13,11,43,11.90
2007,10,13,11,44,12.00
2007,10,13,11,45,12.00
2007,10,13,11,46,12.00
2007,10,13,11,47,12.00
2007,10,13,11,48,11.90
2007,10,13,11,49,11.90
2007,10,13,11,50,11.90
2007,10,13,11,51,11.90
2007,10,13,11,52,11.90
2007,10,13,11,53,11.90
2007,10,13,11,54,11.90
2007,10,13,11,55,11.90
2007,10,13,11,56,11.90
2007,10,13,11,57,12.00
2007,10,13,11,58,12.10
2007,10,13,11,59,12.20
2007,10,13,12,00,12.30
2007,10,13,12,01,12.40
2007,10,13,12,02,12.60
2007,10,13,12,03,12.60
2007,10,13,12,04,12.70
2007,10,13,12,05,12.80
2007,10,13,12,06,12.90
2007,10,13,12,07,12.90
2007,10,13,12,08,13.00
2007,10,13,12,09,13.20
2007,10,13,12,10,13.20
2007,10,13,12,11,13.20
2007,10,13,12,12,13.20
2007,10,13,12,13,13.20
2007,10,13,12,14,13.20
2007,10,13,12,15,13.20
2007,10,13,12,16,13.30
2007,10,13,12,17,13.30
2007,10,13,12,18,13.30
2007,10,13,12,19,13.30
2007,10,13,12,20,13.30
2007,10,13,12,21,13.20
2007,10,13,12,22,13.10
2007,10,13,12,23,13.00
2007,10,13,12,24,12.80
2007,10,13,12,25,12.60
2007,10,13,12,26,12.60
2007,10,13,12,27,12.50
2007,10,13,12,28,12.40
2007,10,13,12,29,12.30
2007,10,13,12,30,12.30
2007,10,13,12,31,12.30
2007,10,13,12,32,12.30
2007,10,13,12,33,12.40
2007,10,13,12,34,12.40
2007,10,13,12,35,12.40
2007,10,13,12,36,12.40
2007,10,13,12,37,12.40
2007,10,13,12,38,12.40
2007,10,13,12,39,12.50
2007,10,13,12,40,12.50
2007,10,13,12,41,12.60
2007,10,13,12,42,12.60
2007,10,13,12,43,12.50
2007,10,13,12,44,12.50
2007,10,13,12,45,12.50
2007,10,13,12,46,12.50
2007,10,13,12,47,12.60
2007,10,13,12,48,12.60
2007,10,13,12,49,12.70
2007,10,13,12,50,12.70
2007,10,13,12,51,12.70
2007,10,13,12,52,12.70
2007,10,13,12,53,12.80
2007,10,13,12,54,12.80
2007,10,13,12,55,12.90
2007,10,13,12,56,13.00
2007,10,13,12,57,13.10
2007,10,13,12,58,13.20
2007,10,13,12,59,13.30
2007,10,13,13,00,13.30
2007,10,13,13,01,13.40
2007,10,13,13,02,13.50
2007,10,13,13,03,13.60
2007,10,13,13,04,13.50
2007,10,13,13,05,13.40
2007,10,13,13,06,13.40
2007,10,13,13,07,13.40
2007,10,13,13,08,13.50
2007,10,13,13,09,13.50
2007,10,13,13,10,13.50
2007,10,13,13,11,13.40
2007,10,13,13,12,13.40
2007,10,13,13,13,13.40
2007,10,13,13,14,13.40
2007,10,13,13,15,13.40
2007,10,13,13,16,13.50
2007,10,13,13,17,13.60
2007,10,13,13,18,13.60
2007,10,13,13,19,13.60
2007,10,13,13,20,13.60
2007,10,13,13,21,13.60
2007,10,13,13,22,13.70
2007,10,13,13,23,13.60
2007,10,13,13,24,13.60
2007,10,13,13,25,13.50
2007,10,13,13,26,13.40
2007,10,13,13,27,13.40
2007,10,13,13,28,13.30
2007,10,13,13,29,13.20
2007,10,13,13,30,13.20
2007,10,13,13,31,13.20
2007,10,13,13,32,13.20
2007,10,13,13,33,13.30
2007,10,13,13,34,13.30
2007,10,13,13,35,13.30
2007,10,13,13,36,13.40
2007,10,13,13,37,13.50
2007,10,13,13,38,13.60
2007,10,13,13,39,13.60
2007,10,13,13,40,13.60
2007,10,13,13,41,13.60
2007,10,13,13,42,13.60
2007,10,13,13,43,13.70
2007,10,13,13,44,13.80
2007,10,13,13,45,13.90
2007,10,13,13,46,14.00
2007,10,13,13,47,14.10
2007,10,13,13,48,14.10
2007,10,13,13,49,14.10
2007,10,13,13,50,14.20
2007,10,13,13,51,14.20
2007,10,13,13,52,14.30
2007,10,13,13,53,14.30
2007,10,13,13,54,14.40
2007,10,13,13,55,14.40
2007,10,13,13,56,14.40
2007,10,13,13,57,14.50
2007,10,13,13,58,14.50
2007,10,13,13,59,14.40
2007,10,13,14,00,14.40
2007,10,13,14,01,14.50
2007,10,13,14,02,14.60
2007,10,13,14,03,14.70
2007,10,13,14,04,14.80
2007,10,13,14,05,15.00
2007,10,13,14,06,15.00
2007,10,13,14,07,15.00
2007,10,13,14,08,15.00
2007,10,13,14,09,14.90
2007,10,13,14,10,14.70
2007,10,13,14,11,14.40
2007,10,13,14,12,14.30
2007,10,13,14,13,14.20
2007,10,13,14,14,14.10
2007,10,13,14,15,14.00
2007,10,13,14,16,13.90
2007,10,13,14,17,13.80
2007,10,13,14,18,13.80
2007,10,13,14,19,13.80
2007,10,13,14,20,13.70
2007,10,13,14,21,13.60
2007,10,13,14,22,13.60
2007,10,13,14,23,13.60
2007,10,13,14,24,13.40
2007,10,13,14,25,13.40
2007,10,13,14,26,13.40
2007,10,13,14,27,13.40
2007,10,13,14,28,13.40
2007,10,13,14,29,13.30
2007,10,13,14,30,13.30
2007,10,13,14,31,13.30
2007,10,13,14,32,13.30
2007,10,13,14,33,13.30
2007,10,13,14,34,13.40
2007,10,13,14,35,13.40
2007,10,13,14,36,13.50
2007,10,13,14,37,13.50
2007,10,13,14,38,13.50
2007,10,13,14,39,13.50
2007,10,13,14,40,13.40
2007,10,13,14,41,13.40
2007,10,13,14,42,13.40
2007,10,13,14,43,13.30
2007,10,13,14,44,13.40
2007,10,13,14,45,13.40
2007,10,13,14,46,13.50
2007,10,13,14,47,13.50
2007,10,13,14,48,13.50
2007,10,13,14,49,13.50
2007,10,13,14,50,13.50
2007,10,13,14,51,13.50
2007,10,13,14,52,13.50
2007,10,13,14,53,13.60
2007,10,13,14,54,13.60
2007,10,13,14,55,13.60
2007,10,13,14,56,13.60
2007,10,13,14,57,13.70
2007,10,13,14,58,13.60
2007,10,13,14,59,13.50
2007,10,13,15,00,13.50
2007,10,13,15,01,13.50
2007,10,13,15,02,13.50
2007,10,13,15,03,13.50
2007,10,13,15,04,13.60
2007,10,13,15,05,13.60
2007,10,13,15,06,13.60
2007,10,13,15,07,13.70
2007,10,13,15,08,13.80
2007,10,13,15,09,13.80
2007,10,13,15,10,13.80
2007,10,13,15,11,13.70
2007,10,13,15,12,13.70
2007,10,13,15,13,13.80
2007,10,13,15,14,13.80
2007,10,13,15,15,14.00
2007,10,13,15,16,14.00
2007,10,13,15,17,14.10
2007,10,13,15,18,14.00
2007,10,13,15,19,14.00
2007,10,13,15,20,14.00
2007,10,13,15,21,14.00
2007,10,13,15,22,14.10
2007,10,13,15,23,14.00
2007,10,13,15,24,13.90
2007,10,13,15,25,13.90
2007,10,13,15,26,13.80
2007,10,13,15,27,13.80
2007,10,13,15,28,13.80
2007,10,13,15,29,13.80
2007,10,13,15,30,13.80
2007,10,13,15,31,13.80
2007,10,13,15,32,13.80
2007,10,13,15,33,13.80
2007,10,13,15,34,13.80
2007,10,13,15,35,13.80
2007,10,13,15,36,13.80
2007,10,13,15,37,13.90
2007,10,13,15,38,14.00
2007,10,13,15,39,13.90
2007,10,13,15,40,14.00
2007,10,13,15,41,14.00
2007,10,13,15,42,13.90
2007,10,13,15,43,13.90
2007,10,13,15,44,13.80
2007,10,13,15,45,13.80
2007,10,13,15,46,13.70
2007,10,13,15,47,13.70
2007,10,13,15,48,13.70
2007,10,13,15,49,13.70
2007,10,13,15,50,13.70
2007,10,13,15,51,13.60
2007,10,13,15,52,13.60
2007,10,13,15,53,13.60
2007,10,13,15,54,13.60
2007,10,13,15,55,13.60
2007,10,13,15,56,13.60
2007,10,13,15,57,13.60
2007,10,13,15,58,13.60
2007,10,13,15,59,13.60
2007,10,13,16,00,13.70
2007,10,13,16,01,13.60
2007,10,13,16,02,13.60
2007,10,13,16,03,13.60
2007,10,13,16,04,13.60
2007,10,13,16,05,13.60
2007,10,13,16,06,13.50
2007,10,13,16,07,13.50
2007,10,13,16,08,13.50
2007,10,13,16,09,13.50
2007,10,13,16,10,13.50
2007,10,13,16,11,13.40
2007,10,13,16,12,13.30
2007,10,13,16,13,13.30
2007,10,13,16,14,13.30
2007,10,13,16,15,13.30
2007,10,13,16,16,13.30
2007,10,13,16,17,13.40
2007,10,13,16,18,13.40
2007,10,13,16,19,13.40
2007,10,13,16,20,13.40
2007,10,13,16,21,13.40
2007,10,13,16,22,13.40
2007,10,13,16,23,13.40
2007,10,13,16,24,13.40
2007,10,13,16,25,13.40
2007,10,13,16,26,13.50
2007,10,13,16,27,13.60
2007,10,13,16,28,13.60
2007,10,13,16,29,13.60
2007,10,13,16,30,13.60
2007,10,13,16,31,13.60
2007,10,13,16,32,13.70
2007,10,13,16,33,13.70
2007,10,13,16,34,13.70
2007,10,13,16,35,13.70
2007,10,13,16,36,13.70
2007,10,13,16,37,13.70
2007,10,13,16,38,13.70
2007,10,13,16,39,13.70
2007,10,13,16,40,13.70
2007,10,13,16,41,13.70
2007,10,13,16,42,13.80
2007,10,13,16,43,13.80
2007,10,13,16,44,13.70
2007,10,13,16,45,13.70
2007,10,13,16,46,13.70
2007,10,13,16,47,13.70
2007,10,13,16,48,13.60
2007,10,13,16,49,13.60
2007,10,13,16,50,13.60
2007,10,13,16,51,13.50
2007,10,13,16,52,13.40
2007,10,13,16,53,13.30
2007,10,13,16,54,13.30
2007,10,13,16,55,13.30
2007,10,13,16,56,13.20
2007,10,13,16,57,13.20
2007,10,13,16,58,13.10
2007,10,13,16,59,13.10
2007,10,13,17,00,13.10
2007,10,13,17,01,13.10
2007,10,13,17,02,13.10
2007,10,13,17,03,13.10
2007,10,13,17,04,13.00
2007,10,13,17,05,13.00
2007,10,13,17,06,13.00
2007,10,13,17,07,13.00
2007,10,13,17,08,13.00
2007,10,13,17,09,12.90
2007,10,13,17,10,12.90
2007,10,13,17,11,12.90
2007,10,13,17,12,12.80
2007,10,13,17,13,12.80
2007,10,13,17,14,12.80
2007,10,13,17,15,12.80
2007,10,13,17,16,12.80
2007,10,13,17,17,12.70
2007,10,13,17,18,12.70
2007,10,13,17,19,12.70
2007,10,13,17,20,12.60
2007,10,13,17,21,12.60
2007,10,13,17,22,12.50
2007,10,13,17,23,12.50
2007,10,13,17,24,12.40
2007,10,13,17,25,12.40
2007,10,13,17,26,12.30
2007,10,13,17,27,12.30
2007,10,13,17,28,12.30
2007,10,13,17,29,12.30
2007,10,13,17,30,12.30
2007,10,13,17,31,12.30
2007,10,13,17,32,12.30
2007,10,13,17,33,12.30
2007,10,13,17,34,12.30
2007,10,13,17,35,12.30
2007,10,13,17,36,12.30
2007,10,13,17,37,12.30
2007,10,13,17,38,12.30
2007,10,13,17,39,12.30
2007,10,13,17,40,12.30
2007,10,13,17,41,12.30
2007,10,13,17,42,12.30
2007,10,13,17,43,12.30
2007,10,13,17,44,12.30
2007,10,13,17,45,12.30
2007,10,13,17,46,12.20
2007,10,13,17,47,12.20
2007,10,13,17,48,12.20